Flag for India Weather past 2 weeks in Hoshiarpur, Punjab, India

Now
88 °F

Fog.


Feels Like: 105 °F
Forecast: 80 / 98 °F
Wind: No wind

Location: Amritsar Airport

Current Time: Jul 30, 2014 at 9:14:09 PM

Latest Report: Jul 30, 2014 at 8:30 PM


Visibility: 2 mi

Pressure: 29.53 "Hg

Humidity: 79%

Dew point: 81 °F

Location of HoshiarpurLocation

Historic Weather in Hoshiarpur — Graph

°F

Hoshiarpur temperature yesterday

Maximum temperature yesterday: 86 °F (at 2:00 PM)
Minimum temperature yesterday: 77 °F (at 9:30 AM)
Average temperature yesterday: 82 °F

Past Weeks' High & Low Weather Summary

 TemperatureHumidityPressure
High97 °F (Jul 22, 1:30 PM)100% (Jul 17, 10:30 PM)29.68 "Hg (Jul 17, 10:30 PM)
Low70 °F (Jul 26, 6:00 PM)56% (Jul 20, 3:30 PM)29.36 "Hg (Jul 15, 7:30 PM)
Average86 °F83%29.52 "Hg
* Reported Jul 15 7:30 PM — Jul 30 8:00 PM, Hoshiarpur, Weather by CustomWeather, © 2014

Note: Actual official high and low records may vary slightly from our data, if they occured in-between our weather recording intervals... More about our weather records

Advertising

Hoshiarpur weather history for previous 24 hours

 ConditionsComfort  
Time TempWeatherWind HumidityBarometerVisibility
8:00 PM
Jul 30
88 °FFog.No wind79%29.53 "Hg2 mi
7:30 PM88 °FFog.No wind79%29.53 "Hg2 mi
7:00 PM90 °FScattered clouds.1 mph75%29.50 "Hg2 mi
6:30 PM90 °FScattered clouds.2 mph75%29.50 "Hg2 mi
6:00 PM91 °FScattered clouds.1 mph71%29.50 "Hg3 mi
5:30 PM91 °FScattered clouds.5 mph71%29.53 "Hg3 mi
4:30 PM91 °FScattered clouds.5 mph71%29.53 "Hg3 mi
4:00 PM91 °FScattered clouds.3 mph71%29.56 "Hg3 mi
10:30 AM88 °FFog.No wind79%29.65 "Hg2 mi
10:00 AM88 °FFog.No wind79%29.62 "Hg2 mi
9:30 AM88 °FFog.No wind79%29.62 "Hg2 mi
9:00 AM86 °FFog.No wind84%29.62 "Hg2 mi
8:00 AM82 °FFog.No wind94%29.62 "Hg1 mi
7:30 AM82 °FFog.No wind100%29.59 "Hg1 mi
7:00 AM81 °FFog.No wind100%29.59 "Hg1 mi
6:30 AM79 °FFog.No wind100%29.59 "Hg1 mi
6:00 AM79 °FFog.No wind100%29.59 "Hg1 mi
5:30 AM79 °FFog.No wind100%29.59 "Hg1 mi
5:00 AM79 °FFog.No wind100%29.59 "Hg1 mi
4:30 AM79 °FFog.No wind100%29.59 "Hg1 mi
4:00 AM79 °FFog.No wind100%29.59 "Hg1 mi
3:30 AM79 °FFog.No wind100%29.59 "Hg1 mi
3:00 AM79 °FFog.No wind100%29.59 "Hg1 mi
2:30 AM79 °FFog.No wind100%29.59 "Hg1 mi
2:00 AM79 °FFog.No wind100%29.59 "Hg1 mi
1:30 AM79 °FFog.No wind100%29.59 "Hg1 mi
1:00 AM81 °FFog.No wind100%29.59 "Hg1 mi
12:30 AM81 °FFog.No wind100%29.59 "Hg1 mi
12:00 AM81 °FFog.No wind100%29.59 "Hg1 mi
11:30 PM
Jul 29
81 °FFog.No wind100%29.59 "Hg1 mi
11:00 PM81 °FFog.No wind100%29.59 "Hg1 mi
10:30 PM81 °FFog.No wind100%29.56 "Hg1 mi
10:00 PM81 °FFog.No wind100%29.56 "Hg2 mi
9:00 PM81 °FFog.2 mph100%29.56 "Hg3 mi
Weather by CustomWeather, © 2014

See weather overviewHow to use our weather pages